NORTHEAST SUFFOLK  -  Dense Fog Advisory Dense Fog Advisory        NORTHERN NASSAU  -  Dense Fog Advisory Dense Fog Advisory        NORTHERN QUEENS  -  Dense Fog Advisory Dense Fog Advisory     Dense Fog Advisory Dense Fog Advisory        NORTHWEST SUFFOLK  -  Dense Fog Advisory Dense Fog Advisory        SOUTHEAST SUFFOLK  -  Dense Fog Advisory Dense Fog Advisory        SOUTHERN NASSAU  -  Dense Fog Advisory Dense Fog Advisory        SOUTHERN QUEENS  -  Dense Fog Advisory Dense Fog Advisory     Dense Fog Advisory Dense Fog Advisory        SOUTHWEST SUFFOLK  -  Dense Fog Advisory Dense Fog Advisory      

Active alerts

Northern Queens
  Details for Northern Queens Dense Fog Advisory  +1 additional alert
Southern Queens
  Details for Southern Queens Dense Fog Advisory  +1 additional alert
Northern Nassau
  Details for Northern Nassau Dense Fog Advisory
Southern Nassau
  Details for Southern Nassau Dense Fog Advisory
Northwest Suffolk
  Details for Northwest Suffolk Dense Fog Advisory
Southwest Suffolk
  Details for Southwest Suffolk Dense Fog Advisory
Northeast Suffolk
  Details for Northeast Suffolk Dense Fog Advisory
Southeast Suffolk
  Details for Southeast Suffolk Dense Fog Advisory


WXM80 ListenWXM80 Stop

You find our weather info also at:

UK Metoffice

WeatherCloud

Weather Underground

Northeastern Weather Network

AWEKAS

Citizen Weather Observer Program (CWOP)

HAMweather, WeatherForYou, PWS Weather


Weather Underground History page Text

Daily Summary for January 19, 2018 Units:  English    Metric   Both
« Previous Day
Next Day »
Daily Weekly Monthly Yearly Custom
  High: Low: Average:
Temperature: TemperatureF °F 23.8 °F 29.6 °F
Dew Point: DewpointF °F 16.8 °F 20.2 °F
Humidity: Humidity % 54 % 68 %
Wind Speed: WindSpeedMPH mph 0.0 mph 2.5 mph
Wind Gust: WindSpeedGustMPH mph - -
Wind:- - WSW
Pressure: PressureIn in 29.69 in -
Precipitation: 0.00 in    
Historical Graphs
 
 
Tabular Data for January 19, 2018
Time Temperature Dew Point Pressure Wind Wind Speed Wind Gust Humidity Rainfall Rate (Hourly)
TemperatureF °F DewpointF °F PressureIn in Calm     Humidity % HourlyPrecipIn in
00:01 24.8 °F 18.0 °F 29.80 in West 2.9 mph 5.8 mph 75 % 0.00 in
00:06 24.9 °F 18.4 °F 29.80 in WNW 2.7 mph 8.1 mph 76 % 0.00 in
00:11 25.0 °F 18.5 °F 29.80 in West 2.1 mph 8.1 mph 76 % 0.00 in
00:16 25.0 °F 18.5 °F 29.80 in NW 3.2 mph 11.5 mph 76 % 0.00 in
00:21 25.2 °F 18.4 °F 29.80 in West 3.5 mph 6.9 mph 75 % 0.00 in
00:26 25.2 °F 18.4 °F 29.80 in WNW 1.6 mph 3.5 mph 75 % 0.00 in
00:31 25.3 °F 18.5 °F 29.80 in WSW 2.6 mph 6.9 mph 75 % 0.00 in
00:36 25.3 °F 18.5 °F 29.79 in WNW 3.1 mph 5.8 mph 75 % 0.00 in
00:41 25.3 °F 18.5 °F 29.79 in West 2.5 mph 4.0 mph 75 % 0.00 in
00:46 25.3 °F 18.2 °F 29.79 in NW 3.8 mph 7.0 mph 74 % 0.00 in
00:51 25.3 °F 18.2 °F 29.78 in WNW 3.2 mph 6.9 mph 74 % 0.00 in
00:56 25.3 °F 18.2 °F 29.78 in West 4.0 mph 6.9 mph 74 % 0.00 in
01:01 25.3 °F 18.5 °F 29.78 in WSW 3.3 mph 5.8 mph 75 % 0.00 in
01:06 25.3 °F 18.2 °F 29.78 in WNW 3.3 mph 5.8 mph 74 % 0.00 in
01:11 25.3 °F 18.2 °F 29.78 in West 3.3 mph 5.0 mph 74 % 0.00 in
01:16 25.3 °F 18.2 °F 29.78 in WSW 3.1 mph 6.9 mph 74 % 0.00 in
01:21 25.3 °F 18.2 °F 29.78 in WSW 3.4 mph 6.9 mph 74 % 0.00 in
01:26 25.2 °F 18.1 °F 29.78 in WNW 0.9 mph 3.5 mph 74 % 0.00 in
01:32 25.2 °F 18.1 °F 29.78 in West 3.2 mph 5.8 mph 74 % 0.00 in
01:37 25.2 °F 18.1 °F 29.79 in WSW 5.0 mph 9.2 mph 74 % 0.00 in
01:42 25.2 °F 18.1 °F 29.79 in WNW 4.3 mph 9.2 mph 74 % 0.00 in
01:47 25.2 °F 18.1 °F 29.79 in WSW 2.7 mph 6.9 mph 74 % 0.00 in
01:52 25.3 °F 18.2 °F 29.79 in WSW 4.1 mph 8.1 mph 74 % 0.00 in
01:57 25.3 °F 18.2 °F 29.79 in WNW 4.3 mph 6.9 mph 74 % 0.00 in
02:02 25.3 °F 18.2 °F 29.79 in West 5.4 mph 11.0 mph 74 % 0.00 in
02:07 25.3 °F 18.2 °F 29.79 in WNW 3.3 mph 8.1 mph 74 % 0.00 in
02:12 25.4 °F 17.9 °F 29.79 in WSW 1.7 mph 3.5 mph 73 % 0.00 in
02:17 25.4 °F 18.3 °F 29.79 in WNW 4.7 mph 8.1 mph 74 % 0.00 in
02:22 25.4 °F 17.9 °F 29.79 in West 5.2 mph 6.9 mph 73 % 0.00 in
02:27 25.4 °F 18.3 °F 29.79 in WNW 2.6 mph 6.9 mph 74 % 0.00 in
02:32 25.3 °F 18.2 °F 29.79 in West 2.9 mph 8.1 mph 74 % 0.00 in
02:37 25.3 °F 17.9 °F 29.79 in WNW 3.7 mph 8.0 mph 73 % 0.00 in
02:42 25.3 °F 18.2 °F 29.79 in WNW 4.1 mph 9.0 mph 74 % 0.00 in
02:47 25.3 °F 18.2 °F 29.79 in West 4.3 mph 5.8 mph 74 % 0.00 in
02:52 25.4 °F 18.3 °F 29.79 in WNW 5.1 mph 10.0 mph 74 % 0.00 in
02:58 25.4 °F 18.3 °F 29.79 in NW 4.5 mph 8.1 mph 74 % 0.00 in
03:03 25.4 °F 18.3 °F 29.78 in WNW 4.8 mph 6.9 mph 74 % 0.00 in
03:08 25.4 °F 18.3 °F 29.78 in WNW 3.3 mph 5.8 mph 74 % 0.00 in
03:13 25.4 °F 18.3 °F 29.79 in WNW 4.0 mph 5.8 mph 74 % 0.00 in
03:18 25.5 °F 18.4 °F 29.78 in West 0.1 mph 5.8 mph 74 % 0.00 in
03:23 25.5 °F 18.4 °F 29.79 in West 3.5 mph 8.1 mph 74 % 0.00 in
03:28 25.5 °F 18.7 °F 29.79 in NW 4.0 mph 7.0 mph 75 % 0.00 in
03:33 25.5 °F 18.4 °F 29.79 in West 4.7 mph 9.2 mph 74 % 0.00 in
03:38 25.5 °F 18.4 °F 29.80 in WSW 3.5 mph 6.9 mph 74 % 0.00 in
03:43 25.5 °F 18.4 °F 29.80 in WNW 4.1 mph 8.1 mph 74 % 0.00 in
03:48 25.4 °F 18.3 °F 29.80 in West 2.6 mph 4.6 mph 74 % 0.00 in
03:53 25.4 °F 18.6 °F 29.80 in West 2.9 mph 5.8 mph 75 % 0.00 in
03:58 25.4 °F 18.6 °F 29.80 in WSW 5.7 mph 11.5 mph 75 % 0.00 in
04:03 25.4 °F 18.3 °F 29.80 in WSW 5.3 mph 6.9 mph 74 % 0.00 in
04:08 25.5 °F 18.4 °F 29.80 in NW 4.6 mph 9.2 mph 74 % 0.00 in
04:13 25.5 °F 18.4 °F 29.80 in West 4.2 mph 6.9 mph 74 % 0.00 in
04:18 25.5 °F 18.4 °F 29.80 in SW 3.3 mph 9.2 mph 74 % 0.00 in
04:23 25.6 °F 18.1 °F 29.80 in WSW 7.5 mph 9.2 mph 73 % 0.00 in
04:28 25.6 °F 17.8 °F 29.81 in West 4.1 mph 5.8 mph 72 % 0.00 in
04:33 25.7 °F 17.6 °F 29.81 in WSW 2.6 mph 5.8 mph 71 % 0.00 in
04:38 25.7 °F 17.6 °F 29.81 in West 2.3 mph 6.0 mph 71 % 0.00 in
04:43 25.7 °F 17.6 °F 29.80 in SW 4.5 mph 5.8 mph 71 % 0.00 in
04:48 25.6 °F 17.5 °F 29.80 in WSW 4.0 mph 9.2 mph 71 % 0.00 in
04:54 25.6 °F 17.8 °F 29.80 in WSW 5.1 mph 11.5 mph 72 % 0.00 in
04:59 25.6 °F 17.8 °F 29.80 in WSW 1.3 mph 4.6 mph 72 % 0.00 in
05:04 25.6 °F 17.8 °F 29.81 in WSW 2.2 mph 5.8 mph 72 % 0.00 in
05:09 25.5 °F 18.0 °F 29.81 in WSW 3.1 mph 5.8 mph 73 % 0.00 in
05:14 25.4 °F 17.9 °F 29.80 in SW 4.2 mph 7.0 mph 73 % 0.00 in
05:19 25.3 °F 17.9 °F 29.81 in SW 3.0 mph 4.6 mph 73 % 0.00 in
05:24 25.2 °F 17.8 °F 29.81 in SW 1.7 mph 3.5 mph 73 % 0.00 in
05:29 25.1 °F 17.7 °F 29.81 in SSW 2.7 mph 3.5 mph 73 % 0.00 in
05:34 24.9 °F 17.5 °F 29.81 in SW 2.9 mph 4.0 mph 73 % 0.00 in
05:39 24.8 °F 17.4 °F 29.80 in SW 0.2 mph 1.2 mph 73 % 0.00 in
05:42 24.8 °F 17.4 °F 29.81 in SW 1.0 mph 2.3 mph 73 % 0.00 in
05:47 24.7 °F 17.3 °F 29.80 in SW 1.0 mph 3.5 mph 73 % 0.00 in
05:52 24.5 °F 17.1 °F 29.81 in SW 0.8 mph 3.5 mph 73 % 0.00 in
05:57 24.3 °F 16.9 °F 29.80 in WSW 1.7 mph 3.5 mph 73 % 0.00 in
06:02 24.2 °F 17.1 °F 29.80 in WSW 3.6 mph 5.8 mph 74 % 0.00 in
06:07 24.1 °F 17.0 °F 29.81 in WSW 1.0 mph 1.2 mph 74 % 0.00 in
06:12 24.0 °F 16.9 °F 29.81 in WSW 1.0 mph 1.2 mph 74 % 0.00 in
06:17 23.9 °F 16.8 °F 29.80 in SW 2.5 mph 3.5 mph 74 % 0.00 in
06:22 23.9 °F 17.1 °F 29.80 in WSW 2.5 mph 5.0 mph 75 % 0.00 in
06:27 23.9 °F 17.1 °F 29.81 in WSW 0.4 mph 3.5 mph 75 % 0.00 in
06:32 23.9 °F 17.1 °F 29.81 in WSW 2.6 mph 3.5 mph 75 % 0.00 in
06:37 23.9 °F 17.1 °F 29.81 in Calm     75 % 0.00 in
06:42 23.9 °F 17.1 °F 29.81 in SW 2.6 mph 4.6 mph 75 % 0.00 in
06:47 23.9 °F 17.1 °F 29.80 in SW 1.0 mph 3.5 mph 75 % 0.00 in
06:52 23.9 °F 17.1 °F 29.81 in WSW 2.0 mph 5.8 mph 75 % 0.00 in
06:58 23.9 °F 17.1 °F 29.81 in WSW 1.4 mph 2.3 mph 75 % 0.00 in
07:03 23.9 °F 17.1 °F 29.81 in WSW 2.7 mph 3.5 mph 75 % 0.00 in
07:08 23.9 °F 17.1 °F 29.80 in SW 2.5 mph 4.6 mph 75 % 0.00 in
07:13 23.9 °F 17.1 °F 29.81 in SSW 0.5 mph 3.0 mph 75 % 0.00 in
07:18 23.8 °F 17.0 °F 29.81 in WSW 0.7 mph 4.6 mph 75 % 0.00 in
07:23 23.8 °F 17.3 °F 29.81 in SW 1.2 mph 3.0 mph 76 % 0.00 in
07:28 23.8 °F 17.3 °F 29.81 in WSW 1.1 mph 3.5 mph 76 % 0.00 in
07:33 23.8 °F 17.3 °F 29.81 in SW 1.6 mph 3.5 mph 76 % 0.00 in
07:38 23.8 °F 17.3 °F 29.81 in WSW 2.6 mph 3.5 mph 76 % 0.00 in
07:43 23.8 °F 17.3 °F 29.81 in SSW 2.4 mph 4.0 mph 76 % 0.00 in
07:48 23.9 °F 17.4 °F 29.81 in SW 1.0 mph 3.5 mph 76 % 0.00 in
07:53 23.9 °F 17.4 °F 29.81 in SW 2.0 mph 2.3 mph 76 % 0.00 in
07:58 24.0 °F 17.5 °F 29.81 in WSW 1.8 mph 3.5 mph 76 % 0.00 in
08:03 24.2 °F 18.0 °F 29.80 in WSW 1.5 mph 3.5 mph 77 % 0.00 in
08:08 24.4 °F 17.9 °F 29.81 in SW 1.9 mph 3.5 mph 76 % 0.00 in
08:13 24.6 °F 18.1 °F 29.81 in SW 0.6 mph 3.5 mph 76 % 0.00 in
08:18 24.8 °F 18.3 °F 29.82 in WSW 0.2 mph 1.2 mph 76 % 0.00 in
08:23 25.0 °F 18.5 °F 29.81 in WSW 0.9 mph 1.2 mph 76 % 0.00 in
08:29 25.2 °F 18.7 °F 29.82 in SW 1.6 mph 3.5 mph 76 % 0.00 in
08:34 25.4 °F 18.9 °F 29.82 in SW 2.5 mph 3.0 mph 76 % 0.00 in
08:39 25.7 °F 18.9 °F 29.82 in WSW 2.5 mph 6.0 mph 75 % 0.00 in
08:44 25.9 °F 19.1 °F 29.82 in SW 2.6 mph 5.8 mph 75 % 0.00 in
08:49 26.2 °F 19.0 °F 29.82 in WSW 2.6 mph 3.5 mph 74 % 0.00 in
08:54 26.4 °F 19.2 °F 29.82 in Calm   3.5 mph 74 % 0.00 in
08:59 26.6 °F 19.4 °F 29.82 in WSW 1.3 mph 3.5 mph 74 % 0.00 in
09:04 27.0 °F 19.5 °F 29.82 in Calm   1.2 mph 73 % 0.00 in
09:09 27.4 °F 19.9 °F 29.82 in SSW 0.6 mph 2.3 mph 73 % 0.00 in
09:14 27.8 °F 19.9 °F 29.82 in SSW 1.3 mph 3.5 mph 72 % 0.00 in
09:19 28.2 °F 20.3 °F 29.82 in SW 1.5 mph 5.0 mph 72 % 0.00 in
09:24 28.9 °F 20.7 °F 29.82 in West 4.3 mph 6.9 mph 71 % 0.00 in
09:29 29.5 °F 20.9 °F 29.82 in SW 5.5 mph 9.2 mph 70 % 0.00 in
09:34 30.1 °F 21.2 °F 29.83 in WSW 4.2 mph 9.0 mph 69 % 0.00 in
09:39 30.6 °F 21.3 °F 29.82 in WSW 5.6 mph 8.1 mph 68 % 0.00 in
09:44 31.2 °F 21.5 °F 29.82 in SW 4.6 mph 11.5 mph 67 % 0.00 in
09:49 31.6 °F 21.2 °F 29.83 in WSW 8.1 mph 12.0 mph 65 % 0.00 in
09:54 31.9 °F 21.1 °F 29.82 in SW 6.3 mph 12.0 mph 64 % 0.00 in
09:59 32.1 °F 20.9 °F 29.83 in WSW 5.7 mph 7.0 mph 63 % 0.00 in
10:04 32.4 °F 21.2 °F 29.82 in West 4.8 mph 7.0 mph 63 % 0.00 in
10:10 32.5 °F 20.9 °F 29.83 in WSW 4.4 mph 5.8 mph 62 % 0.00 in
10:15 32.7 °F 21.1 °F 29.83 in WSW 4.9 mph 10.4 mph 62 % 0.00 in
10:20 32.8 °F 20.8 °F 29.83 in SW 3.3 mph 9.2 mph 61 % 0.00 in
10:25 33.0 °F 21.0 °F 29.82 in SW 3.4 mph 11.5 mph 61 % 0.00 in
10:30 33.1 °F 20.7 °F 29.82 in WSW 6.5 mph 11.5 mph 60 % 0.00 in
10:35 33.2 °F 20.4 °F 29.82 in WSW 6.2 mph 9.2 mph 59 % 0.00 in
10:40 33.3 °F 20.1 °F 29.82 in WSW 2.5 mph 11.5 mph 58 % 0.00 in
10:45 33.5 °F 20.7 °F 29.82 in West 4.1 mph 11.5 mph 59 % 0.00 in
10:50 33.6 °F 20.4 °F 29.82 in West 4.3 mph 10.4 mph 58 % 0.00 in
10:55 33.6 °F 20.4 °F 29.81 in SW 8.3 mph 13.8 mph 58 % 0.00 in
11:00 33.6 °F 20.4 °F 29.81 in WSW 6.7 mph 11.5 mph 58 % 0.00 in
11:05 33.6 °F 20.4 °F 29.81 in WNW 6.7 mph 12.7 mph 58 % 0.00 in
11:10 33.7 °F 20.5 °F 29.81 in WSW 5.7 mph 8.1 mph 58 % 0.00 in
11:15 33.7 °F 20.5 °F 29.80 in WSW 5.2 mph 11.5 mph 58 % 0.00 in
11:20 33.8 °F 20.6 °F 29.80 in West 7.3 mph 12.7 mph 58 % 0.00 in
11:25 33.9 °F 20.7 °F 29.79 in SSW 3.7 mph 7.0 mph 58 % 0.00 in
11:30 34.0 °F 20.3 °F 29.79 in SW 6.6 mph 8.1 mph 57 % 0.00 in
11:35 34.0 °F 20.3 °F 29.79 in WSW 7.0 mph 9.2 mph 57 % 0.00 in
11:41 34.0 °F 20.3 °F 29.79 in NW 2.5 mph 10.0 mph 57 % 0.00 in
11:46 34.0 °F 20.8 °F 29.79 in West 2.0 mph 8.0 mph 58 % 0.00 in
11:51 34.0 °F 20.3 °F 29.79 in West 6.0 mph 12.0 mph 57 % 0.00 in
11:56 34.0 °F 20.3 °F 29.79 in West 3.0 mph 9.0 mph 57 % 0.00 in
12:01 34.0 °F 20.3 °F 29.79 in WSW 4.3 mph 11.5 mph 57 % 0.00 in
12:06 34.0 °F 20.3 °F 29.78 in WNW 4.5 mph 7.0 mph 57 % 0.00 in
12:11 34.0 °F 20.3 °F 29.77 in West 0.9 mph 3.5 mph 57 % 0.00 in
12:16 34.1 °F 20.4 °F 29.77 in WSW 5.2 mph 11.5 mph 57 % 0.00 in
12:21 34.2 °F 20.9 °F 29.77 in WNW 2.0 mph 3.5 mph 58 % 0.00 in
12:26 34.4 °F 21.1 °F 29.77 in West 3.3 mph 5.0 mph 58 % 0.00 in
12:31 34.6 °F 20.9 °F 29.77 in West 3.5 mph 8.1 mph 57 % 0.00 in
12:36 34.7 °F 21.0 °F 29.76 in WNW 2.6 mph 4.6 mph 57 % 0.00 in
12:41 34.8 °F 21.5 °F 29.76 in WSW 5.2 mph 9.2 mph 58 % 0.00 in
12:46 34.9 °F 21.2 °F 29.76 in WSW 5.0 mph 8.0 mph 57 % 0.00 in
12:51 35.0 °F 21.3 °F 29.75 in WSW 6.3 mph 9.2 mph 57 % 0.00 in
12:56 35.1 °F 21.4 °F 29.76 in West 4.7 mph 8.1 mph 57 % 0.00 in
13:01 35.2 °F 21.1 °F 29.75 in SW 6.6 mph 10.4 mph 56 % 0.00 in
13:06 35.3 °F 21.6 °F 29.75 in WSW 4.8 mph 8.0 mph 57 % 0.00 in
13:11 35.5 °F 21.3 °F 29.75 in WSW 2.2 mph 5.8 mph 56 % 0.00 in
13:16 35.8 °F 21.6 °F 29.75 in WSW 5.3 mph 8.1 mph 56 % 0.00 in
13:21 36.0 °F 21.8 °F 29.74 in SSW 5.5 mph 11.0 mph 56 % 0.00 in
13:27 36.2 °F 21.6 °F 29.75 in West 2.7 mph 6.0 mph 55 % 0.00 in
13:32 36.2 °F 21.6 °F 29.75 in WNW 7.9 mph 13.8 mph 55 % 0.00 in
13:37 36.2 °F 21.1 °F 29.75 in WNW 6.4 mph 10.4 mph 54 % 0.00 in
13:42 36.1 °F 21.5 °F 29.74 in West 0.8 mph 3.5 mph 55 % 0.00 in
13:47 36.1 °F 21.5 °F 29.74 in West 5.6 mph 11.5 mph 55 % 0.00 in
13:52 36.0 °F 21.4 °F 29.74 in SSW 4.1 mph 8.1 mph 55 % 0.00 in
13:57 35.8 °F 21.2 °F 29.74 in West 6.6 mph 11.5 mph 55 % 0.00 in
14:02 35.7 °F 21.5 °F 29.74 in WSW 5.7 mph 11.5 mph 56 % 0.00 in
14:07 35.6 °F 21.4 °F 29.74 in WSW 6.0 mph 8.1 mph 56 % 0.00 in
14:12 35.6 °F 21.4 °F 29.74 in SW 4.9 mph 8.1 mph 56 % 0.00 in
14:17 35.7 °F 21.5 °F 29.74 in West 5.5 mph 8.1 mph 56 % 0.00 in
14:22 35.7 °F 21.5 °F 29.74 in WSW 7.8 mph 11.5 mph 56 % 0.00 in
14:27 35.7 °F 21.5 °F 29.74 in WSW 5.8 mph 9.2 mph 56 % 0.00 in
14:32 35.7 °F 21.5 °F 29.74 in SSW 5.0 mph 8.1 mph 56 % 0.00 in
14:37 35.6 °F 21.4 °F 29.74 in WSW 5.7 mph 10.4 mph 56 % 0.00 in
14:42 35.6 °F 21.4 °F 29.73 in SW 3.6 mph 8.0 mph 56 % 0.00 in
14:47 35.6 °F 21.4 °F 29.74 in WSW 2.0 mph 6.0 mph 56 % 0.00 in
14:52 35.6 °F 21.4 °F 29.74 in SW 3.7 mph 11.5 mph 56 % 0.00 in
14:57 35.6 °F 21.9 °F 29.74 in SSW 2.8 mph 6.0 mph 57 % 0.00 in
15:02 35.6 °F 21.9 °F 29.74 in WSW 4.7 mph 10.4 mph 57 % 0.00 in
15:07 35.7 °F 21.5 °F 29.74 in SW 2.5 mph 4.6 mph 56 % 0.00 in
15:12 35.8 °F 21.6 °F 29.74 in SW 4.4 mph 8.1 mph 56 % 0.00 in
15:18 35.8 °F 21.6 °F 29.74 in West 3.8 mph 8.1 mph 56 % 0.00 in
15:23 35.8 °F 22.0 °F 29.74 in WSW 3.3 mph 8.1 mph 57 % 0.00 in
15:28 35.8 °F 22.0 °F 29.74 in WSW 2.8 mph 4.6 mph 57 % 0.00 in
15:33 35.8 °F 22.0 °F 29.75 in SW 1.5 mph 4.6 mph 57 % 0.00 in
15:38 35.8 °F 22.5 °F 29.75 in WSW 2.5 mph 4.6 mph 58 % 0.00 in
15:43 35.8 °F 22.0 °F 29.75 in WSW 4.1 mph 5.8 mph 57 % 0.00 in
15:48 35.8 °F 22.0 °F 29.75 in WSW 2.3 mph 6.0 mph 57 % 0.00 in
15:53 35.7 °F 21.9 °F 29.75 in WSW 1.6 mph 3.5 mph 57 % 0.00 in
15:58 35.6 °F 21.9 °F 29.74 in WSW 4.1 mph 5.8 mph 57 % 0.00 in
16:03 35.5 °F 21.8 °F 29.74 in SW 2.6 mph 4.6 mph 57 % 0.00 in
16:08 35.5 °F 22.2 °F 29.74 in WSW 1.6 mph 3.5 mph 58 % 0.00 in
16:13 35.4 °F 22.5 °F 29.74 in Calm   2.3 mph 59 % 0.00 in
16:18 35.4 °F 22.5 °F 29.74 in WSW 1.8 mph 3.5 mph 59 % 0.00 in
16:23 35.3 °F 22.4 °F 29.74 in West 1.3 mph 5.8 mph 59 % 0.00 in
16:28 35.3 °F 22.0 °F 29.75 in West 3.3 mph 4.6 mph 58 % 0.00 in
16:33 35.2 °F 21.9 °F 29.75 in West 2.0 mph 3.5 mph 58 % 0.00 in
16:38 35.2 °F 21.9 °F 29.75 in WSW 0.8 mph 2.3 mph 58 % 0.00 in
16:43 35.1 °F 21.8 °F 29.75 in SW 1.2 mph 2.3 mph 58 % 0.00 in
16:48 35.0 °F 21.7 °F 29.75 in Calm   1.0 mph 58 % 0.00 in
16:53 34.9 °F 22.0 °F 29.75 in Calm   1.2 mph 59 % 0.00 in
16:58 34.8 °F 21.9 °F 29.75 in Calm     59 % 0.00 in
17:04 34.6 °F 21.7 °F 29.75 in Calm     59 % 0.00 in
17:09 34.4 °F 21.5 °F 29.75 in Calm     59 % 0.00 in
17:14 34.2 °F 21.7 °F 29.75 in Calm     60 % 0.00 in
17:19 34.0 °F 21.6 °F 29.75 in Calm     60 % 0.00 in
17:24 33.7 °F 21.7 °F 29.75 in Calm     61 % 0.00 in
17:29 33.4 °F 21.8 °F 29.75 in WSW 0.1 mph 1.2 mph 62 % 0.00 in
17:34 33.2 °F 21.6 °F 29.75 in Calm     62 % 0.00 in
17:39 33.0 °F 21.4 °F 29.75 in Calm     62 % 0.00 in
17:44 32.7 °F 21.5 °F 29.75 in Calm     63 % 0.00 in
17:49 32.5 °F 21.7 °F 29.74 in Calm     64 % 0.00 in
17:54 32.2 °F 21.7 °F 29.75 in Calm     65 % 0.00 in
17:59 32.0 °F 21.9 °F 29.74 in Calm     66 % 0.00 in
18:04 31.8 °F 21.7 °F 29.74 in Calm     66 % 0.00 in
18:09 31.6 °F 21.9 °F 29.74 in Calm     67 % 0.00 in
18:14 31.5 °F 21.8 °F 29.75 in Calm     67 % 0.00 in
18:19 31.4 °F 22.1 °F 29.75 in Calm     68 % 0.00 in
18:24 31.2 °F 21.9 °F 29.75 in Calm     68 % 0.00 in
18:29 31.1 °F 21.4 °F 29.75 in Calm     67 % 0.00 in
18:35 31.0 °F 21.7 °F 29.74 in Calm   1.2 mph 68 % 0.00 in
18:40 31.0 °F 21.7 °F 29.74 in Calm   1.2 mph 68 % 0.00 in
18:45 30.9 °F 21.6 °F 29.74 in Calm   1.2 mph 68 % 0.00 in
18:50 30.8 °F 21.5 °F 29.74 in Calm   1.2 mph 68 % 0.00 in
18:55 30.8 °F 21.5 °F 29.74 in Calm     68 % 0.00 in
19:00 30.7 °F 21.7 °F 29.75 in Calm     69 % 0.00 in
19:05 30.7 °F 21.7 °F 29.75 in Calm     69 % 0.00 in
19:10 30.6 °F 21.6 °F 29.75 in Calm   1.2 mph 69 % 0.00 in
19:15 30.5 °F 21.5 °F 29.75 in Calm     69 % 0.00 in
19:20 30.4 °F 21.4 °F 29.75 in Calm     69 % 0.00 in
19:25 30.3 °F 21.7 °F 29.75 in Calm     70 % 0.00 in
19:30 30.2 °F 21.6 °F 29.75 in Calm     70 % 0.00 in
19:35 30.1 °F 21.5 °F 29.75 in Calm     70 % 0.00 in
19:40 30.0 °F 21.4 °F 29.74 in Calm     70 % 0.00 in
19:45 29.9 °F 21.6 °F 29.75 in WSW 0.1 mph 2.3 mph 71 % 0.00 in
19:50 29.8 °F 21.5 °F 29.75 in Calm     71 % 0.00 in
19:55 29.7 °F 21.4 °F 29.75 in Calm     71 % 0.00 in
20:00 29.6 °F 21.3 °F 29.75 in Calm     71 % 0.00 in
20:06 29.5 °F 21.6 °F 29.75 in Calm   1.0 mph 72 % 0.00 in
20:11 29.4 °F 21.5 °F 29.75 in Calm   1.0 mph 72 % 0.00 in
20:16 29.2 °F 21.7 °F 29.75 in Calm   2.0 mph 73 % 0.00 in
20:21 29.1 °F 21.5 °F 29.75 in SW 0.8 mph 3.5 mph 73 % 0.00 in
20:26 29.0 °F 21.7 °F 29.75 in Calm   4.0 mph 74 % 0.00 in
20:31 29.0 °F 21.7 °F 29.74 in SW 1.0 mph 4.0 mph 74 % 0.00 in
20:36 28.9 °F 22.0 °F 29.75 in SW 1.2 mph 2.3 mph 75 % 0.00 in
20:41 28.9 °F 22.0 °F 29.74 in SW 2.0 mph 5.0 mph 75 % 0.00 in
20:46 28.9 °F 22.0 °F 29.74 in SW 1.0 mph 3.0 mph 75 % 0.00 in
20:51 29.1 °F 22.1 °F 29.74 in SW 1.0 mph 3.0 mph 75 % 0.00 in
20:56 29.2 °F 22.3 °F 29.75 in SW 2.0 mph 4.0 mph 75 % 0.00 in
21:01 29.4 °F 22.1 °F 29.74 in WSW 2.5 mph 4.0 mph 74 % 0.00 in
21:06 29.6 °F 22.3 °F 29.75 in WSW 0.8 mph 3.5 mph 74 % 0.00 in
21:11 29.8 °F 22.5 °F 29.75 in SW 1.1 mph 3.5 mph 74 % 0.00 in
21:16 30.0 °F 22.7 °F 29.74 in Calm     74 % 0.00 in
21:21 30.2 °F 22.6 °F 29.75 in SW 0.1 mph 2.3 mph 73 % 0.00 in
21:26 30.3 °F 22.7 °F 29.74 in Calm     73 % 0.00 in
21:31 30.4 °F 22.8 °F 29.74 in Calm     73 % 0.00 in
21:36 30.5 °F 22.9 °F 29.74 in SW 0.3 mph 2.3 mph 73 % 0.00 in
21:41 30.5 °F 22.9 °F 29.74 in SW 0.8 mph 2.3 mph 73 % 0.00 in
21:46 30.5 °F 22.9 °F 29.74 in SW 1.2 mph 3.5 mph 73 % 0.00 in
21:51 30.5 °F 22.9 °F 29.73 in SW 1.5 mph 3.5 mph 73 % 0.00 in
21:56 30.5 °F 22.9 °F 29.73 in SW 0.9 mph 2.3 mph 73 % 0.00 in
22:01 30.4 °F 22.4 °F 29.73 in Calm   2.3 mph 72 % 0.00 in
22:06 30.4 °F 22.8 °F 29.73 in Calm     73 % 0.00 in
22:11 30.4 °F 22.8 °F 29.73 in Calm     73 % 0.00 in
22:17 30.3 °F 22.7 °F 29.73 in Calm   2.3 mph 73 % 0.00 in
22:22 30.3 °F 22.7 °F 29.72 in SW 0.2 mph 1.2 mph 73 % 0.00 in
22:27 30.3 °F 22.7 °F 29.72 in SW 0.3 mph 2.3 mph 73 % 0.00 in
22:32 30.3 °F 22.7 °F 29.72 in SW 0.6 mph 2.3 mph 73 % 0.00 in
22:37 30.3 °F 22.7 °F 29.71 in SW 1.1 mph 3.5 mph 73 % 0.00 in
22:42 30.3 °F 22.7 °F 29.71 in SW 1.1 mph 3.5 mph 73 % 0.00 in
22:47 30.3 °F 23.0 °F 29.72 in SW 2.2 mph 3.5 mph 74 % 0.00 in
22:52 30.3 °F 23.0 °F 29.71 in SSW 2.8 mph 3.5 mph 74 % 0.00 in
22:57 30.3 °F 23.0 °F 29.71 in SSW 1.3 mph 4.0 mph 74 % 0.00 in
23:02 30.4 °F 23.1 °F 29.71 in SSW 1.8 mph 3.5 mph 74 % 0.00 in
23:07 30.5 °F 23.2 °F 29.71 in SSW 1.7 mph 3.5 mph 74 % 0.00 in
23:12 30.6 °F 23.3 °F 29.71 in SSW 2.4 mph 4.0 mph 74 % 0.00 in
23:17 30.7 °F 23.4 °F 29.71 in SSW 2.1 mph 3.5 mph 74 % 0.00 in
23:22 30.8 °F 23.5 °F 29.70 in SSW 1.8 mph 3.5 mph 74 % 0.00 in
23:27 31.0 °F 23.7 °F 29.70 in SSW 2.4 mph 3.5 mph 74 % 0.00 in
23:32 31.1 °F 23.8 °F 29.70 in SSW 1.4 mph 3.5 mph 74 % 0.00 in
23:37 31.2 °F 23.5 °F 29.70 in SSW 1.2 mph 3.5 mph 73 % 0.00 in
23:42 31.3 °F 23.6 °F 29.70 in SSW 3.5 mph 5.8 mph 73 % 0.00 in
23:47 31.4 °F 23.7 °F 29.69 in SSW 1.4 mph 3.5 mph 73 % 0.00 in
23:52 31.4 °F 23.7 °F 29.69 in SSW 1.7 mph 2.3 mph 73 % 0.00 in
23:58 31.5 °F 23.8 °F 29.69 in SW 1.0 mph 3.5 mph 73 % 0.00 in
Crab Meadow Weather
Compliments of Weather Underground - 3 mb

Script developed by  Jim McMurry - jmcmurry@mwt.net Adapted for the template by  Wim van der Kuil - Leuven-Template.eu

Astronomy: The Sun is around 4.5 billion years old.